EN

Hourly Weather Alvaro Obregon

Today, 17 January, Sunday

Time Temperature Precipitation Wind Pressure Humidity
00:00 +14°C° 0 mm 1 mps 571 mmHg 70%
01:00 +14°C° 0 mm 1 mps 571 mmHg 68%
02:00 +13°C° 0 mm 1 mps 570 mmHg 67%
03:00 +13°C° 0 mm 1 mps 570 mmHg 66%
04:00 +13°C° 0 mm 1 mps 571 mmHg 65%
05:00 +14°C° 0 mm 1 mps 571 mmHg 64%
06:00 +14°C° 0 mm 1 mps 571 mmHg 61%
07:00 +14°C° 0 mm 1 mps 572 mmHg 59%
08:00 +15°C° 0 mm 1 mps 572 mmHg 57%
09:00 +16°C° 0 mm 1 mps 573 mmHg 51%
10:00 +19°C° 0 mm 1 mps 573 mmHg 46%
11:00 +20°C° 0 mm 1 mps 574 mmHg 41%
12:00 +20°C° 0.2 mm 1 mps 573 mmHg 40%
13:00 +19°C° 0.2 mm 2 mps 572 mmHg 40%
14:00 +19°C° 0.2 mm 2 mps 572 mmHg 39%
15:00 +18°C° 0.4 mm 2 mps 572 mmHg 44%
16:00 +18°C° 0.4 mm 1 mps 571 mmHg 49%
17:00 +18°C° 0.4 mm 1 mps 571 mmHg 54%
18:00 +16°C° 0.1 mm 1 mps 572 mmHg 56%
19:00 +14°C° 0.1 mm 0 mps 572 mmHg 57%
20:00 +14°C° 0.1 mm 0 mps 572 mmHg 59%
21:00 +13°C° 0 mm 0 mps 572 mmHg 61%
22:00 +13°C° 0 mm 0 mps 572 mmHg 62%
23:00 +13°C° 0 mm 1 mps 572 mmHg 64%

Tomorrow, 18 January, Monday

Time Temperature Precipitation Wind Pressure Humidity
00:00 +13°C° 0 mm 1 mps 571 mmHg 66%
01:00 +13°C° 0 mm 1 mps 571 mmHg 68%
02:00 +12°C° 0 mm 1 mps 570 mmHg 71%
03:00 +11°C° 0 mm 0 mps 570 mmHg 72%
04:00 +11°C° 0 mm 0 mps 570 mmHg 74%
05:00 +10°C° 0 mm 0 mps 571 mmHg 76%
06:00 +11°C° 0 mm 0 mps 571 mmHg 74%
07:00 +12°C° 0 mm 0 mps 572 mmHg 71%
08:00 +13°C° 0 mm 0 mps 572 mmHg 69%
09:00 +15°C° 0 mm 1 mps 573 mmHg 62%
10:00 +18°C° 0 mm 1 mps 573 mmHg 54%
11:00 +20°C° 0 mm 1 mps 574 mmHg 47%
12:00 +19°C° 0.1 mm 2 mps 573 mmHg 45%
13:00 +19°C° 0.1 mm 2 mps 573 mmHg 44%
14:00 +20°C° 0.1 mm 2 mps 572 mmHg 42%
15:00 +19°C° 0.1 mm 2 mps 572 mmHg 46%
16:00 +18°C° 0.1 mm 2 mps 571 mmHg 51%
17:00 +17°C° 0.1 mm 2 mps 571 mmHg 56%
18:00 +16°C° 0 mm 2 mps 571 mmHg 60%
19:00 +15°C° 0 mm 2 mps 571 mmHg 64%
20:00 +14°C° 0 mm 1 mps 571 mmHg 69%
21:00 +14°C° 0 mm 1 mps 571 mmHg 70%
22:00 +14°C° 0 mm 1 mps 571 mmHg 71%
23:00 +13°C° 0 mm 1 mps 571 mmHg 72%

Day after tomorrow, 19 January, Tuesday

Time Temperature Precipitation Wind Pressure Humidity
00:00 +13°C° 0 mm 1 mps 571 mmHg 73%
01:00 +13°C° 0 mm 1 mps 571 mmHg 74%
02:00 +12°C° 0 mm 1 mps 570 mmHg 75%
03:00 +12°C° 0 mm 1 mps 570 mmHg 76%
04:00 +12°C° 0 mm 1 mps 570 mmHg 76%
05:00 +12°C° 0 mm 1 mps 570 mmHg 76%
06:00 +12°C° 0 mm 0 mps 571 mmHg 71%
07:00 +13°C° 0 mm 0 mps 572 mmHg 67%
08:00 +14°C° 0 mm 0 mps 573 mmHg 63%
09:00 +16°C° 0 mm 0 mps 573 mmHg 56%
10:00 +19°C° 0 mm 1 mps 574 mmHg 49%
11:00 +21°C° 0 mm 1 mps 574 mmHg 42%
12:00 +21°C° 0 mm 1 mps 574 mmHg 40%
13:00 +22°C° 0 mm 1 mps 574 mmHg 38%
14:00 +22°C° 0 mm 1 mps 573 mmHg 36%
15:00 +21°C° 0.2 mm 1 mps 573 mmHg 40%
16:00 +20°C° 0.2 mm 2 mps 573 mmHg 45%
17:00 +19°C° 0.2 mm 2 mps 572 mmHg 50%
18:00 +18°C° 0 mm 2 mps 573 mmHg 54%
19:00 +17°C° 0 mm 2 mps 573 mmHg 57%
20:00 +16°C° 0 mm 1 mps 573 mmHg 61%
21:00 +16°C° 0 mm 1 mps 573 mmHg 62%
22:00 +15°C° 0 mm 1 mps 573 mmHg 63%
23:00 +15°C° 0 mm 1 mps 573 mmHg 64%

20 January, Wednesday

Time Temperature Precipitation Wind Pressure Humidity
00:00 +15°C° 0 mm 1 mps 573 mmHg 66%
01:00 +14°C° 0 mm 1 mps 573 mmHg 68%
02:00 +13°C° 0 mm 0 mps 572 mmHg 70%
03:00 +13°C° 0 mm 1 mps 572 mmHg 73%
04:00 +13°C° 0 mm 1 mps 572 mmHg 75%
05:00 +13°C° 0 mm 1 mps 572 mmHg 77%
06:00 +13°C° 0 mm 1 mps 572 mmHg 77%
07:00 +13°C° 0 mm 1 mps 573 mmHg 77%
08:00 +13°C° 0 mm 2 mps 574 mmHg 76%
09:00 +15°C° 0 mm 2 mps 574 mmHg 70%
10:00 +16°C° 0 mm 2 mps 574 mmHg 64%
11:00 +17°C° 0 mm 2 mps 574 mmHg 58%
12:00 +17°C° 0 mm 2 mps 574 mmHg 55%
13:00 +18°C° 0 mm 2 mps 574 mmHg 52%
14:00 +20°C° 0 mm 1 mps 573 mmHg 49%
15:00 +18°C° 0.1 mm 2 mps 573 mmHg 52%
16:00 +18°C° 0.1 mm 2 mps 573 mmHg 55%
17:00 +17°C° 0.1 mm 2 mps 573 mmHg 58%
18:00 +16°C° 0.1 mm 1 mps 573 mmHg 64%
19:00 +15°C° 0.1 mm 1 mps 573 mmHg 70%
20:00 +14°C° 0.1 mm 1 mps 573 mmHg 75%
21:00 +14°C° 0 mm 1 mps 573 mmHg 78%
22:00 +14°C° 0 mm 1 mps 573 mmHg 80%
23:00 +13°C° 0 mm 1 mps 573 mmHg 82%

21 January, Thursday

Time Temperature Precipitation Wind Pressure Humidity
00:00 +13°C° 0 mm 1 mps 573 mmHg 83%
01:00 +13°C° 0 mm 1 mps 572 mmHg 84%
02:00 +13°C° 0 mm 1 mps 572 mmHg 85%
03:00 +12°C° 0 mm 1 mps 572 mmHg 84%
04:00 +12°C° 0 mm 1 mps 572 mmHg 84%
05:00 +12°C° 0 mm 1 mps 572 mmHg 84%
06:00 +13°C° 0 mm 1 mps 572 mmHg 80%
07:00 +13°C° 0 mm 1 mps 573 mmHg 77%
08:00 +14°C° 0 mm 1 mps 574 mmHg 73%
09:00 +16°C° 0 mm 1 mps 574 mmHg 63%
10:00 +18°C° 0 mm 1 mps 574 mmHg 53%
11:00 +20°C° 0 mm 1 mps 575 mmHg 43%
12:00 +20°C° 0 mm 2 mps 575 mmHg 38%
13:00 +21°C° 0 mm 2 mps 574 mmHg 33%
14:00 +21°C° 0 mm 2 mps 574 mmHg 28%
15:00 +20°C° 0 mm 2 mps 573 mmHg 32%
16:00 +19°C° 0 mm 2 mps 573 mmHg 35%
17:00 +18°C° 0 mm 3 mps 572 mmHg 39%
18:00 +17°C° 0 mm 2 mps 572 mmHg 44%
19:00 +16°C° 0 mm 2 mps 572 mmHg 50%
20:00 +15°C° 0 mm 2 mps 572 mmHg 55%
21:00 +14°C° 0 mm 1 mps 572 mmHg 58%
22:00 +14°C° 0 mm 1 mps 572 mmHg 60%
23:00 +14°C° 0 mm 1 mps 572 mmHg 63%

22 January, Friday

Time Temperature Precipitation Wind Pressure Humidity
00:00 +13°C° 0 mm 1 mps 572 mmHg 62%
01:00 +13°C° 0 mm 1 mps 571 mmHg 61%
02:00 +13°C° 0 mm 1 mps 571 mmHg 59%
03:00 +13°C° 0 mm 1 mps 571 mmHg 57%
04:00 +12°C° 0 mm 1 mps 571 mmHg 55%
05:00 +12°C° 0 mm 1 mps 571 mmHg 53%
06:00 +13°C° 0 mm 1 mps 572 mmHg 50%
07:00 +13°C° 0 mm 0 mps 573 mmHg 47%
08:00 +14°C° 0 mm 0 mps 573 mmHg 44%
09:00 +16°C° 0 mm 0 mps 574 mmHg 39%
10:00 +20°C° 0 mm 1 mps 574 mmHg 35%
11:00 +22°C° 0 mm 1 mps 575 mmHg 30%
12:00 +22°C° 0 mm 1 mps 574 mmHg 29%
13:00 +22°C° 0 mm 1 mps 574 mmHg 29%
14:00 +23°C° 0 mm 1 mps 573 mmHg 28%
15:00 +22°C° 0 mm 1 mps 573 mmHg 32%
16:00 +20°C° 0 mm 2 mps 573 mmHg 36%
17:00 +19°C° 0 mm 2 mps 572 mmHg 40%
18:00 +18°C° 0 mm 2 mps 572 mmHg 44%
19:00 +17°C° 0 mm 2 mps 573 mmHg 48%
20:00 +16°C° 0 mm 1 mps 573 mmHg 52%
21:00 +16°C° 0 mm 1 mps 572 mmHg 53%
22:00 +16°C° 0 mm 1 mps 572 mmHg 54%
23:00 +15°C° 0 mm 1 mps 572 mmHg 55%
Show more